Frederick, MD

3:11 PM EST on November 14, 2019 (GMT -0500)
Frederick Municipal

Weather History for KFDK - September, 2019

Change the Weather History Date:

Sunday, September 1, 2019

  Actual Average (KHGR) Record (KHGR)
Temperature  
Mean Temperature 73 °F -  
Max Temperature 82 °F 78 °F 96 °F (2010)
Min Temperature 64 °F 60 °F 54 °F (1999)
Cooling Degree Days 8    
Growing Degree Days 23 (Base 50)    
Moisture  
Dew Point 60 °F    
Average Humidity 70    
Maximum Humidity 88    
Minimum Humidity 54    
Precipitation  
Precipitation 0.00 in - - ()
Sea Level Pressure  
Sea Level Pressure 30.26 in    
Wind  
Wind Speed 3 mph (NE)    
Max Wind Speed 8 mph    
Max Gust Speed -    
Visibility 10 miles    
Events Rain    
Averages and records for this station are not official NWS values.
T = Trace of Precipitation, MM = Missing Value Source: NWS Daily Summary

Daily Weather History Graph

Daily Weather History Graph

Search for Another Location

Airport or City:

Astronomy

Sep. 01, 2019 Rise Set
Actual Time 6:37 AM EDT 7:40 PM EDT
Civil Twilight 6:10 AM EDT 8:08 PM EDT
Nautical Twilight 5:37 AM EDT 8:40 PM EDT
Astronomical Twilight 5:03 AM EDT 9:14 PM EDT
Moon 9:04 AM EDT (9/1) 9:27 PM EDT (9/1)
Length of Visible Light 13h 58m
Length of Day
13h 03m
Waxing Crescent, 8% of the Moon is Illuminated
Sep 1
Waxing Crescent
Sep 5
First Quarter
Sep 14
Full
Sep 21
Last Quarter
Sep 28
New

Hourly Weather History & Observations

Time (EDT) Temp. Heat Index Dew Point Humidity Pressure Visibility Wind Dir Wind Speed Gust Speed Precip Events Conditions
12:00 AM 68.0 °F - 57.2 °F 68% 30.28 in 10.0 mi Calm Calm - N/A   Overcast
12:20 AM 68.0 °F - 57.2 °F 68% 30.28 in 10.0 mi Calm Calm - N/A   Overcast
12:40 AM 68.0 °F - 57.2 °F 68% 30.28 in 10.0 mi NE 4.6 mph - N/A   Overcast
1:00 AM 68.0 °F - 57.2 °F 68% 30.28 in 10.0 mi NE 4.6 mph - N/A   Mostly Cloudy
1:20 AM 66.2 °F - 55.4 °F 68% 30.28 in 10.0 mi NE 3.5 mph - N/A   Clear
1:40 AM 66.2 °F - 55.4 °F 68% 30.28 in 10.0 mi NE 3.5 mph - N/A   Clear
2:00 AM 66.2 °F - 55.4 °F 68% 30.28 in 10.0 mi NNE 4.6 mph - N/A   Scattered Clouds
2:20 AM 68.0 °F - 55.4 °F 64% 30.28 in 10.0 mi NE 4.6 mph - N/A   Overcast
2:40 AM 68.0 °F - 55.4 °F 64% 30.28 in 10.0 mi NE 5.8 mph - N/A   Overcast
3:00 AM 68.0 °F - 55.4 °F 64% 30.28 in 10.0 mi NE 6.9 mph - N/A   Overcast
3:20 AM 68.0 °F - 55.4 °F 64% 30.28 in 10.0 mi NNE 6.9 mph - N/A   Overcast
3:40 AM 68.0 °F - 55.4 °F 64% 30.29 in 10.0 mi NNE 4.6 mph - N/A   Overcast
4:20 AM 68.0 °F - 55.4 °F 64% 30.29 in 10.0 mi NNE 5.8 mph - N/A   Overcast
4:40 AM 68.0 °F - 55.4 °F 64% 30.28 in 10.0 mi NE 4.6 mph - N/A   Overcast
5:00 AM 66.2 °F - 55.4 °F 68% 30.28 in 10.0 mi NNE 6.9 mph - N/A   Overcast
5:20 AM 66.2 °F - 55.4 °F 68% 30.28 in 10.0 mi NNE 5.8 mph - N/A   Overcast
5:40 AM 66.2 °F - 55.4 °F 68% 30.28 in 10.0 mi NNE 6.9 mph - N/A   Overcast
6:00 AM 66.2 °F - 55.4 °F 68% 30.28 in 10.0 mi NNE 6.9 mph - N/A   Mostly Cloudy
6:20 AM 66.2 °F - 55.4 °F 68% 30.28 in 10.0 mi NNE 6.9 mph - N/A   Mostly Cloudy
6:40 AM 66.2 °F - 57.2 °F 73% 30.28 in 10.0 mi NNE 5.8 mph - N/A   Overcast
6:55 AM 64.4 °F - 57.2 °F 77% 30.28 in 10.0 mi NNE 6.9 mph - N/A   Overcast
7:57 AM 66.2 °F - 59.0 °F 78% 30.30 in 10.0 mi NNE 4.6 mph - N/A   Overcast
8:47 AM 68.0 °F - 59.0 °F 73% 30.31 in 10.0 mi NE 4.6 mph - N/A   Overcast
9:47 AM 71.6 °F - 60.8 °F 69% 30.32 in 10.0 mi NNE 8.1 mph - N/A   Overcast
10:48 AM 75.2 °F - 62.6 °F 65% 30.31 in 10.0 mi ENE 3.5 mph - N/A   Scattered Clouds
11:50 AM 75.2 °F - 62.6 °F 65% 30.31 in 10.0 mi Calm Calm - N/A   Mostly Cloudy
12:47 PM 78.8 °F - 64.4 °F 61% 30.29 in 10.0 mi East 4.6 mph - N/A   Overcast
1:47 PM 82.4 °F 83.9 °F 64.4 °F 54% 30.28 in 10.0 mi Calm Calm - N/A   Mostly Cloudy
2:47 PM 78.8 °F - 66.2 °F 65% 30.25 in 10.0 mi Calm Calm - N/A   Overcast
3:47 PM 78.8 °F - 66.2 °F 65% 30.23 in 10.0 mi Calm Calm - N/A   Overcast
4:47 PM 80.6 °F 82.7 °F 66.2 °F 61% 30.21 in 10.0 mi Calm Calm - N/A   Mostly Cloudy
5:47 PM 78.8 °F - 68.0 °F 69% 30.21 in 7.0 mi Calm Calm - N/A Rain Rain
6:47 PM 77.0 °F - 68.0 °F 74% 30.20 in 10.0 mi ESE 5.8 mph - N/A   Scattered Clouds
7:47 PM 75.2 °F - 69.8 °F 83% 30.19 in 10.0 mi Calm Calm - N/A   Mostly Cloudy
8:47 PM 73.4 °F - 69.8 °F 88% 30.19 in 10.0 mi Calm Calm - N/A   Overcast
10:00 PM 71.6 °F - 68.0 °F 88% 30.18 in 10.0 mi ESE 4.6 mph - N/A   Scattered Clouds
10:20 PM 71.6 °F - 66.2 °F 83% 30.18 in 10.0 mi ESE 4.6 mph - N/A   Clear
10:40 PM 71.6 °F - 66.2 °F 83% 30.18 in 10.0 mi ESE 3.5 mph - N/A   Scattered Clouds
11:00 PM 71.6 °F - 66.2 °F 83% 30.18 in 10.0 mi ESE 3.5 mph - N/A   Scattered Clouds
11:20 PM 71.6 °F - 66.2 °F 83% 30.18 in 10.0 mi SE 3.5 mph - N/A   Clear
11:40 PM 71.6 °F - 66.2 °F 83% 30.17 in 10.0 mi SE 4.6 mph - N/A   Clear